Gore Bay, Ontario

11:17 PM EDT on August 30, 2016 (GMT -0400)
Gore Bay-Manitoulin

Weather History for CYZE - November, 2013

Change the Weather History Date:

Saturday, November 30, 2013

  Actual Average Record
Temperature  
Mean Temperature 21 °F -  
Max Temperature 35 °F 35 °F 57 °F (1998)
Min Temperature 7 °F 25 °F 3 °F (2012)
Degree Days  
Heating Degree Days 44    
Moisture  
Dew Point 30 °F    
Average Humidity 89    
Maximum Humidity 100    
Minimum Humidity 64    
Precipitation  
Precipitation 0.16 in - - ()
Sea Level Pressure  
Sea Level Pressure 30.15 in    
Wind  
Wind Speed 12 mph ()    
Max Wind Speed 25 mph    
Max Gust Speed 34 mph    
Visibility 4.8 miles    
Events Rain , Snow    
Averages and records for this station are not official NWS values.
T = Trace of Precipitation, MM = Missing Value Source: Averaged Metar Reports

Daily Weather History Graph

Daily Weather History Graph

Search for Another Location

Airport or City:

Trip Planner

Search our weather history database for the weather conditions in past years. The results will help you decide how hot, cold, wet, or windy it might be!

Date:

Astronomy

Nov. 30, 2013 Rise Set
Actual Time 7:50 AM EST 4:47 PM EST
Civil Twilight 7:16 AM EST 5:21 PM EST
Nautical Twilight 6:39 AM EST 5:58 PM EST
Astronomical Twilight 6:03 AM EST 6:34 PM EST
Moon 4:52 AM EST (11/30) 3:16 PM EST (11/30)
Length of Visible Light 10h 04m
Length of Day
8h 57m
Waning Crescent, 7% of the Moon is Illuminated
Nov 30
Waning Crescent
Dec 2
New
Dec 9
First Quarter
Dec 17
Full
Dec 25
Last Quarter

Hourly Weather History & Observations

Time (EST) Temp. Windchill Dew Point Humidity Pressure Visibility Wind Dir Wind Speed Gust Speed Precip Events Conditions
12:00 AM 30.2 °F 18.9 °F 23.0 °F 75% 30.54 in 9.0 mi South 16.1 mph 21.9 mph N/A   Overcast
1:00 AM 14 °F - 10 °F 74% 30.62 in - SE 12.7 mph - -  
1:00 AM 30.2 °F 19.3 °F 23.0 °F 75% 30.53 in 9.0 mi SSW 15.0 mph 20.7 mph N/A   Overcast
2:00 AM 32.0 °F 22.1 °F 23.0 °F 69% 30.50 in 9.0 mi South 13.8 mph 20.7 mph N/A   Overcast
3:00 AM 32.0 °F 21.2 °F 21.2 °F 64% 30.48 in 9.0 mi South 16.1 mph 24.2 mph N/A   Overcast
4:00 AM 32.0 °F 20.8 °F 21.2 °F 64% 30.44 in 9.0 mi SSW 17.3 mph 25.3 mph N/A   Overcast
5:00 AM 32.0 °F 19.2 °F 23.0 °F 69% 30.41 in 9.0 mi SSW 23.0 mph 31.1 mph N/A   Overcast
6:00 AM 33.8 °F 21.9 °F 24.8 °F 70% 30.38 in 9.0 mi SSW 21.9 mph 28.8 mph N/A   Overcast
7:00 AM 22 °F - 20 °F 90% 30.45 in - SSE 17.3 mph - -  
7:00 AM 33.8 °F 21.6 °F 24.8 °F 70% 30.35 in 9.0 mi SSW 23.0 mph 29.9 mph N/A   Overcast
8:00 AM 33.8 °F 21.0 °F 26.6 °F 75% 30.31 in 9.0 mi SSW 25.3 mph 33.4 mph N/A   Overcast
9:00 AM 33.8 °F 21.0 °F 26.6 °F 75% 30.28 in 9.0 mi South 25.3 mph 34.5 mph N/A   Overcast
10:00 AM 33.8 °F 21.3 °F 26.6 °F 75% 30.25 in 9.0 mi South 24.2 mph 29.9 mph N/A   Overcast
10:16 AM 33.8 °F 22.2 °F 26.6 °F 75% 30.24 in 9.0 mi South 20.7 mph 31.1 mph N/A   Overcast
10:47 AM 33.8 °F 21.6 °F 26.6 °F 75% 30.22 in 9.0 mi SSW 23.0 mph 29.9 mph N/A   Overcast
11:00 AM 33.8 °F 21.9 °F 26.6 °F 75% 30.21 in 9.0 mi SSW 21.9 mph 27.6 mph N/A   Overcast
11:42 AM 33.8 °F 22.8 °F 28.4 °F 81% 30.19 in 9.0 mi SSW 18.4 mph 24.2 mph N/A   Overcast
12:00 PM 33.8 °F 22.5 °F 28.4 °F 81% 30.17 in 9.0 mi SSW 19.6 mph 26.5 mph N/A   Overcast
12:26 PM 33.8 °F 23.2 °F 28.4 °F 81% 30.17 in 9.0 mi SSW 17.3 mph 23.0 mph N/A Rain Light Rain
12:31 PM 33.8 °F 22.8 °F 28.4 °F 81% 30.16 in 9.0 mi SSW 18.4 mph 24.2 mph N/A Rain Light Rain
12:37 PM 33.8 °F 23.2 °F 28.4 °F 81% 30.16 in 8.0 mi SSW 17.3 mph 24.2 mph N/A   Overcast
12:39 PM 33.8 °F 22.5 °F 28.4 °F 81% 30.16 in 5.0 mi SSW 19.6 mph - N/A   Overcast
12:46 PM 33.8 °F 23.5 °F 30.2 °F 87% 30.16 in 2.2 mi SSW 16.1 mph 23.0 mph N/A Snow Light Snow
12:52 PM 33.8 °F 24.3 °F 30.2 °F 87% 30.16 in 1.8 mi SSW 13.8 mph 19.6 mph N/A Snow Light Snow
1:00 PM 23 °F - 20 °F 86% 30.20 in - SSE 18.4 mph - -  
1:00 PM 33.8 °F 24.3 °F 30.2 °F 87% 30.16 in 2.0 mi SSW 13.8 mph 19.6 mph N/A Snow Light Snow
1:33 PM 33.8 °F 24.8 °F 30.2 °F 87% 30.14 in 1.2 mi SSW 12.7 mph - N/A Snow Light Snow
2:00 PM 32.0 °F 22.5 °F 30.2 °F 93% 30.12 in 1.2 mi SSW 12.7 mph - N/A Snow Light Snow
2:22 PM 32.0 °F 23.0 °F 32.0 °F 100% 30.12 in 1.0 mi SW 11.5 mph - N/A Snow Light Snow
3:00 PM 32.0 °F 23.0 °F 32.0 °F 100% 30.09 in 0.8 mi SSW 11.5 mph - N/A Snow Light Snow
3:01 PM 32.0 °F 23.6 °F 32.0 °F 100% 30.09 in 0.8 mi SSW 10.4 mph - N/A Snow Light Snow
3:04 PM 32.0 °F 23.0 °F 32.0 °F 100% 30.09 in 0.8 mi SSW 11.5 mph - N/A Snow Light Snow
3:09 PM 32.0 °F 23.0 °F 32.0 °F 100% 30.09 in 0.8 mi SSW 11.5 mph - N/A Snow Light Snow
3:18 PM 32.0 °F 22.5 °F 32.0 °F 100% 30.09 in 0.8 mi SSW 12.7 mph - N/A Snow Light Snow
3:21 PM 32.0 °F 22.1 °F 32.0 °F 100% 30.09 in 0.8 mi SSW 13.8 mph - N/A Snow Light Snow
3:29 PM 32.0 °F 23.0 °F 32.0 °F 100% 30.09 in 0.8 mi SSW 11.5 mph - N/A Snow Light Snow
4:00 PM 32.0 °F 23.6 °F 32.0 °F 100% 30.08 in 1.0 mi SSW 10.4 mph 17.3 mph N/A Snow Light Snow
5:00 PM 33.8 °F 23.5 °F 32.0 °F 93% 30.07 in 1.5 mi SSW 16.1 mph - N/A Snow Light Snow
5:38 PM 32.0 °F 24.8 °F 32.0 °F 100% 30.07 in 1.2 mi SW 8.1 mph - N/A Snow Light Snow
5:51 PM 32.0 °F 24.2 °F 32.0 °F 100% 30.06 in 1.2 mi SSW 9.2 mph - N/A Snow Light Snow
6:00 PM 32.0 °F 24.2 °F 32.0 °F 100% 30.06 in 1.2 mi SSW 9.2 mph - N/A Snow Light Snow
6:06 PM 33.8 °F 26.4 °F 32.0 °F 93% 30.07 in 1.5 mi SW 9.2 mph - N/A Snow Light Snow
6:34 PM 33.8 °F 26.4 °F 32.0 °F 93% 30.06 in 2.2 mi SW 9.2 mph - N/A Snow Light Snow
6:36 PM 33.8 °F 26.4 °F 32.0 °F 93% 30.06 in 2.5 mi SW 9.2 mph - N/A Snow Light Snow
6:41 PM 33.8 °F 26.4 °F 32.0 °F 93% 30.06 in 2.5 mi SW 9.2 mph - N/A Snow Light Snow
6:48 PM 33.8 °F 27.7 °F 32.0 °F 93% 30.06 in 2.5 mi SW 6.9 mph - N/A Snow Light Snow
6:51 PM 33.8 °F 27.7 °F 32.0 °F 93% 30.06 in 2.5 mi SW 6.9 mph - N/A Snow Light Snow
6:54 PM 33.8 °F 28.6 °F 32.0 °F 93% 30.06 in 2.5 mi SW 5.8 mph - N/A Snow Light Snow
6:56 PM 33.8 °F 28.6 °F 32.0 °F 93% 30.06 in 3.0 mi SW 5.8 mph - N/A Snow Light Snow
6:57 PM 33.8 °F 28.6 °F 32.0 °F 93% 30.06 in 3.0 mi SW 5.8 mph - N/A Snow Light Snow
7:00 PM 27 °F - 26 °F 93% 30.08 in - SE 5.8 mph - -  
7:00 PM 33.8 °F 29.6 °F 32.0 °F 93% 30.07 in 3.0 mi SW 4.6 mph - N/A Snow Light Snow
7:12 PM 33.8 °F 30.8 °F 32.0 °F 93% 30.07 in 4.0 mi WSW 3.5 mph - N/A Rain , Snow Light Snow
7:14 PM 33.8 °F - 32.0 °F 93% 30.07 in 4.0 mi West 2.3 mph - N/A Rain , Snow Light Snow
7:15 PM 33.8 °F - 32.0 °F 93% 30.07 in 4.0 mi WSW 2.3 mph - N/A Rain , Snow Light Snow
7:16 PM 33.8 °F 30.8 °F 32.0 °F 93% 30.07 in 4.0 mi WSW 3.5 mph - N/A Rain Light Rain
7:17 PM 33.8 °F 30.8 °F 32.0 °F 93% 30.07 in 4.0 mi WSW 3.5 mph - N/A Rain Light Freezing Rain
7:32 PM 33.8 °F 28.6 °F 32.0 °F 93% 30.07 in 4.0 mi SW 5.8 mph - N/A   Overcast
7:34 PM 33.8 °F 28.6 °F 32.0 °F 93% 30.07 in 4.0 mi SSW 5.8 mph - N/A   Overcast
7:35 PM 33.8 °F 28.6 °F 32.0 °F 93% 30.07 in 4.0 mi SSW 5.8 mph - N/A   Overcast
7:56 PM 33.8 °F 29.6 °F 32.0 °F 93% 30.07 in 4.0 mi SSW 4.6 mph - N/A Rain Light Freezing Rain
8:00 PM 33.8 °F 29.6 °F 32.0 °F 93% 30.07 in 4.0 mi SW 4.6 mph - N/A Rain Light Freezing Rain
8:07 PM 33.8 °F 30.8 °F 32.0 °F 93% 30.06 in 4.0 mi SW 3.5 mph - N/A Rain , Snow Light Snow
8:13 PM 33.8 °F 30.8 °F 32.0 °F 93% 30.07 in 4.0 mi SW 3.5 mph - N/A Snow Light Snow
8:19 PM 33.8 °F 30.8 °F 32.0 °F 93% 30.07 in 4.0 mi WSW 3.5 mph - N/A Rain , Snow Light Snow
8:23 PM 33.8 °F 30.8 °F 32.0 °F 93% 30.06 in 4.0 mi WSW 3.5 mph - N/A Rain Light Freezing Rain
8:47 PM 33.8 °F - 32.0 °F 93% 30.06 in 6.0 mi West 2.3 mph - N/A Rain Light Freezing Rain
9:00 PM 33.8 °F 30.8 °F 32.0 °F 93% 30.06 in 7.0 mi WSW 3.5 mph - N/A Rain Light Freezing Rain
9:04 PM 35.6 °F - 32.0 °F 87% 30.06 in 7.0 mi WSW 2.3 mph - N/A   Overcast
9:22 PM 33.8 °F - 32.0 °F 93% 30.06 in 5.0 mi Calm Calm - N/A   Overcast
9:33 PM 33.8 °F - 32.0 °F 93% 30.06 in 6.0 mi Variable 2.3 mph - N/A   Overcast
10:00 PM 33.8 °F - 32.0 °F 93% 30.05 in 6.0 mi Calm Calm - N/A   Overcast
10:50 PM 33.8 °F - 32.0 °F 93% 30.05 in 5.0 mi Variable 2.3 mph - N/A   Overcast
10:53 PM 33.8 °F - 32.0 °F 93% 30.05 in 5.0 mi NW 2.3 mph - N/A Rain Light Freezing Rain
11:00 PM 33.8 °F 30.8 °F 32.0 °F 93% 30.05 in 5.0 mi NW 3.5 mph - N/A Rain Light Freezing Rain
11:01 PM 33.8 °F 30.8 °F 32.0 °F 93% 30.05 in 6.0 mi NW 3.5 mph - N/A Rain Light Freezing Rain
11:27 PM 35.6 °F 32.8 °F 32.0 °F 87% 30.05 in 8.0 mi North 3.5 mph - N/A   Overcast
11:28 PM 33.8 °F 30.8 °F 32.0 °F 93% 30.05 in 7.0 mi North 3.5 mph - N/A   Overcast
11:29 PM 33.8 °F 30.8 °F 32.0 °F 93% 30.05 in 7.0 mi North 3.5 mph - N/A   Overcast